Flag for Germany Past Weather in Neumarkt in der Oberpfalz, Bavaria, Germany — Yesterday and Last 2 Weeks

Now
57 °F

Broken clouds.


Feels Like: 55 °F
Forecast: 36 / 42 °F
Wind: 12 mph from Northwest

Location: Hohenfels

Current Time: Apr 25, 2017 at 5:09:47 pm

Latest Report: Apr 25, 2017 at 3:58 pm


Visibility: N/A

Pressure: 29.75 "Hg

Humidity: 48%

Dew Point: 37 °F

Location of Neumarkt in der OberpfalzLocation

Past Weather in Neumarkt in der Oberpfalz — Graph

°F

Neumarkt in der Oberpfalz Temperature Yesterday

Maximum temperature yesterday: 59 °F (at 4:58 pm)
Minimum temperature yesterday: 25 °F (at 5:58 am)
Average temperature yesterday: 43 °F

High & Low Weather Summary for the Past Weeks

 TemperatureHumidityPressure
High72 °F (Apr 10, 3:58 pm)100% (Apr 14, 12:58 am)30.60 "Hg (Apr 14, 12:58 am)
Low23 °F (Apr 21, 4:58 am)31% (Apr 10, 3:58 pm)29.73 "Hg (Apr 25, 4:59 am)
Average43 °F73%30.12 "Hg
* Reported Apr 10 3:58 pm — Apr 25 3:58 pm, Neumarkt in der Oberpfalz, Weather by CustomWeather, © 2017

Note: Actual official high and low records may vary slightly from our data, if they occured in-between our weather recording intervals... More about our weather records

Advertising

Neumarkt in der Oberpfalz Weather History for the Previous 24 Hours

Scroll right to see more
 ConditionsComfort  
Time TempWeatherWind HumidityBarometerVisibility
3:58 pm
Tue, Apr 25
57 °FBroken clouds.12 mph48%29.75 "HgN/A
2:58 pm59 °FScattered clouds.13 mph45%29.75 "HgN/A
1:58 pm57 °FPassing clouds.13 mph48%29.76 "HgN/A
12:58 pm57 °FScattered clouds.12 mph48%29.76 "HgN/A
11:58 am55 °FPartly sunny.8 mph51%29.76 "HgN/A
10:58 am55 °FScattered clouds.13 mph47%29.76 "HgN/A
9:58 am54 °FScattered clouds.12 mph51%29.75 "HgN/A
8:59 am48 °FPartly sunny.3 mph66%29.74 "HgN/A
7:59 am39 °FBroken clouds.No wind87%29.75 "HgN/A
6:59 am34 °FScattered clouds.No wind93%29.73 "HgN/A
5:59 am32 °FClear.No wind93%29.73 "HgN/A
4:59 am32 °FClear.No wind100%29.73 "HgN/A
3:59 am32 °FClear.No wind100%29.75 "HgN/A
2:58 am34 °FClear.3 mph93%29.77 "HgN/A
1:59 am36 °FPassing clouds.No wind87%29.78 "HgN/A
12:59 am36 °FClear.3 mph87%29.82 "HgN/A
11:59 pm
Mon, Apr 24
39 °FClear.No wind75%29.83 "HgN/A
10:58 pm41 °FClear.No wind76%29.85 "HgN/A
9:59 pm43 °FClear.No wind76%29.87 "HgN/A
8:59 pm46 °FClear.No wind66%29.89 "HgN/A
7:59 pm52 °FSunny.No wind50%29.90 "HgN/A
6:59 pm57 °FSunny.No wind39%29.92 "HgN/A
5:58 pm59 °FSunny.5 mph34%29.94 "HgN/A
Weather by CustomWeather, © 2017

See weather overviewHow to use our weather pages